Regional Weather Roundup
Issued by NWS

Home | Current Version | Previous Version | Text Only | Print | Product List | Glossary On
Versions: 1 2 3 4 5 6 7 8 9 10 11 12 13 14 15 16 17 18 19 20 21 22 23 24 25 26 27 28 29 30 31 32 33 34 35 36 37 38 39 40 41 42 43 44 45 46 47 48 49 50
000
ASUS44 KBMX 011610
RWRAL

ALABAMA REGIONAL WEATHER ROUNDUP
NATIONAL WEATHER SERVICE BIRMINGHAM AL
1100 AM CDT WED OCT 01 2014

NOTE: "FAIR" INDICATES FEW OR NO CLOUDS BELOW 12,000 FEET
WITH NO SIGNIFICANT WEATHER AND/OR OBSTRUCTIONS TO VISIBILITY.

THE REMARK "TC" DENOTES TEMPERATURE IN DEGREES CELSIUS.

ALZ001>011-014-016>018-020-011700-
NORTH ALABAMA

CITY           SKY/WX    TMP DP  RH WIND       PRES   REMARKS
MUSCLE SHOALS  SUNNY     82  60  47 CALM      30.01S
HUNTSVILLE     MOSUNNY   83  59  44 VRB3      30.00F
DECATUR        SUNNY     82  60  47 CALM      30.01S
HALEYVILLE     FAIR      82  62  50 SW6       30.03F
GADSDEN        SUNNY     79  61  53 CALM      30.02S
$$

ALZ012-013-022-023-030>036-040>044-011700-
WEST CENTRAL ALABAMA

CITY           SKY/WX    TMP DP  RH WIND       PRES   REMARKS
TUSCALOOSA     SUNNY     81  64  56 SW3       29.99S
$$

ALZ015-024>027-033>036-040>044-011700-
CENTRAL ALABAMA

CITY           SKY/WX    TMP DP  RH WIND       PRES   REMARKS
BIRMINGHAM     MOSUNNY   80  60  50 VRB3      30.02F
MONTGOMERY     CLOUDY    79  64  61 CALM      30.00S
SHELBY CO ARPT SUNNY     80  66  62 CALM      30.01S
MAXWELL AFB    PTSUNNY   81  66  61 VRB5      30.00S
GREENVILLE     PTSUNNY   81  65  58 SE6       30.00R
$$

ALZ019-021-028-029-037-038-045>048-011700-
EAST CENTRAL ALABAMA

CITY           SKY/WX    TMP DP  RH WIND       PRES   REMARKS
ANNISTON       SUNNY     81  63  54 SE3       30.01F
ALEXANDER CITY MOSUNNY   79  65  62 SE5       30.02S
AUBURN         PTSUNNY   75  63  64 NE3       30.05S
$$

ALZ051>064-011700-
SOUTHWEST ALABAMA

CITY           SKY/WX    TMP DP  RH WIND       PRES   REMARKS
MOBILE         MOSUNNY   81  71  71 VRB3      29.99R
BROOKLEY FIELD MOSUNNY   80  71  74 E6        30.00R
EVERGREEN      MOSUNNY   81  67  62 CALM      30.00S
$$

ALZ049-050-065>069-011700-
SOUTHEAST ALABAMA

CITY           SKY/WX    TMP DP  RH WIND       PRES   REMARKS
DOTHAN         CLOUDY    77  68  73 VRB3      30.04S
OZARK          CLOUDY    78  65  65 VRB3      30.01R
TROY           CLOUDY    74  67  78 CALM      30.02S
EUFAULA        FAIR      78  66  66 CALM      30.00S
$$


USA.gov is the U.S. government's official web portal to all federal, state and local government web resources and services.